TimeEST,TemperatureF,Dew PointF,Humidity,Sea Level PressureIn,VisibilityMPH,Wind Direction,Wind SpeedMPH,Gust SpeedMPH,PrecipitationIn,Events,Conditions,WindDirDegrees,DateUTC
12:00 AM,32.0,14.0,48,30.27,10.0,NNE,8.1,-,N/A,,Clear,30,2009-01-01 05:00:00
12:20 AM,32.0,14.0,48,30.27,10.0,WNW,4.6,-,N/A,,Clear,290,2009-01-01 05:20:00
12:40 AM,32.0,14.0,48,30.27,10.0,Calm,Calm,-,N/A,,Clear,0,2009-01-01 05:40:00
1:00 AM,32.0,14.0,48,30.27,10.0,NNW,5.8,-,N/A,,Clear,330,2009-01-01 06:00:00
1:20 AM,32.0,12.2,44,30.27,10.0,North,4.6,-,N/A,,Clear,360,2009-01-01 06:20:00
1:40 AM,32.0,14.0,48,30.27,10.0,North,5.8,-,N/A,,Clear,350,2009-01-01 06:40:00
2:00 AM,32.0,12.2,44,30.28,10.0,Calm,Calm,-,N/A,,Clear,0,2009-01-01 07:00:00
2:20 AM,30.2,14.0,51,30.29,10.0,WNW,3.5,-,N/A,,Clear,290,2009-01-01 07:20:00
2:40 AM,32.0,12.2,44,30.29,10.0,North,4.6,-,N/A,,Clear,360,2009-01-01 07:40:00
3:00 AM,30.2,14.0,51,30.29,10.0,NNE,5.8,-,N/A,,Clear,20,2009-01-01 08:00:00
3:20 AM,32.0,14.0,48,30.30,10.0,NE,4.6,-,N/A,,Clear,40,2009-01-01 08:20:00
3:40 AM,30.2,14.0,51,30.30,10.0,NNE,4.6,-,N/A,,Clear,30,2009-01-01 08:40:00
4:00 AM,28.4,14.0,55,30.29,10.0,NE,6.9,-,N/A,,Clear,40,2009-01-01 09:00:00
4:20 AM,30.2,14.0,51,30.29,10.0,North,4.6,-,N/A,,Clear,10,2009-01-01 09:20:00
4:40 AM,28.4,14.0,55,30.29,10.0,NNE,4.6,-,N/A,,Clear,20,2009-01-01 09:40:00
5:00 AM,28.4,14.0,55,30.29,10.0,North,4.6,-,N/A,,Clear,10,2009-01-01 10:00:00
5:20 AM,28.4,14.0,55,30.30,10.0,Calm,Calm,-,N/A,,Clear,0,2009-01-01 10:20:00
5:40 AM,28.4,15.8,59,30.30,10.0,NE,3.5,-,N/A,,Clear,50,2009-01-01 10:40:00
6:00 AM,28.4,14.0,55,30.30,10.0,Calm,Calm,-,N/A,,Clear,0,2009-01-01 11:00:00
6:20 AM,26.6,15.8,64,30.30,10.0,ENE,5.8,-,N/A,,Clear,70,2009-01-01 11:20:00
7:00 AM,24.8,17.6,74,30.32,10.0,Calm,Calm,-,N/A,,Clear,0,2009-01-01 12:00:00
7:20 AM,26.6,15.8,64,30.32,10.0,Calm,Calm,-,N/A,,Clear,0,2009-01-01 12:20:00
7:40 AM,24.8,17.6,74,30.33,10.0,ENE,3.5,-,N/A,,Clear,60,2009-01-01 12:40:00
8:00 AM,24.8,15.8,69,30.33,10.0,ENE,5.8,-,N/A,,Clear,60,2009-01-01 13:00:00
8:20 AM,26.6,17.6,69,30.33,10.0,ENE,5.8,-,N/A,,Clear,60,2009-01-01 13:20:00
8:40 AM,30.2,17.6,60,30.34,10.0,East,3.5,-,N/A,,Clear,80,2009-01-01 13:40:00
9:00 AM,32.0,15.8,51,30.34,10.0,East,4.6,-,N/A,,Clear,80,2009-01-01 14:00:00
9:20 AM,32.0,17.6,55,30.34,10.0,East,4.6,-,N/A,,Clear,80,2009-01-01 14:20:00
9:40 AM,33.8,15.8,48,30.37,10.0,East,5.8,-,N/A,,Clear,90,2009-01-01 14:40:00
10:00 AM,33.8,14.0,44,30.37,10.0,East,6.9,-,N/A,,Clear,90,2009-01-01 15:00:00
10:20 AM,35.6,12.2,38,30.38,10.0,Calm,Calm,-,N/A,,Clear,0,2009-01-01 15:20:00
10:40 AM,37.4,14.0,38,30.38,10.0,NE,4.6,-,N/A,,Clear,50,2009-01-01 15:40:00
11:00 AM,37.4,12.2,36,30.39,10.0,Calm,Calm,-,N/A,,Clear,0,2009-01-01 16:00:00
11:20 AM,37.4,8.6,30,30.38,10.0,Calm,Calm,-,N/A,,Clear,0,2009-01-01 16:20:00
11:40 AM,39.2,8.6,28,30.37,10.0,Calm,Calm,-,N/A,,Clear,0,2009-01-01 16:40:00
12:00 PM,41.0,5.0,23,30.37,10.0,Calm,Calm,-,N/A,,Clear,0,2009-01-01 17:00:00
12:20 PM,39.2,5.0,24,30.36,10.0,Calm,Calm,-,N/A,,Clear,0,2009-01-01 17:20:00
12:40 PM,41.0,5.0,23,30.34,10.0,Calm,Calm,-,N/A,,Clear,0,2009-01-01 17:40:00
1:00 PM,41.0,6.8,24,30.33,10.0,Calm,Calm,-,N/A,,Clear,0,2009-01-01 18:00:00
1:20 PM,42.8,5.0,21,30.31,10.0,SSE,3.5,-,N/A,,Clear,150,2009-01-01 18:20:00
1:40 PM,42.8,5.0,21,30.30,10.0,SW,3.5,-,N/A,,Clear,220,2009-01-01 18:40:00
2:00 PM,42.8,5.0,21,30.29,10.0,Calm,Calm,-,N/A,,Clear,0,2009-01-01 19:00:00
2:20 PM,42.8,8.6,25,30.28,10.0,Calm,Calm,-,N/A,,Clear,0,2009-01-01 19:20:00
2:40 PM,42.8,3.2,19,30.28,10.0,Calm,Calm,-,N/A,,Clear,0,2009-01-01 19:40:00
3:00 PM,42.8,5.0,21,30.27,10.0,Calm,Calm,-,N/A,,Clear,0,2009-01-01 20:00:00
3:20 PM,44.6,3.2,18,30.27,10.0,South,4.6,-,N/A,,Clear,190,2009-01-01 20:20:00
3:40 PM,44.6,3.2,18,30.27,10.0,South,4.6,-,N/A,,Clear,170,2009-01-01 20:40:00
4:00 PM,44.6,5.0,20,30.26,10.0,Calm,Calm,-,N/A,,Clear,0,2009-01-01 21:00:00
4:20 PM,42.8,5.0,21,30.26,10.0,SSE,4.6,-,N/A,,Clear,150,2009-01-01 21:20:00
4:59 PM,42.8,6.8,23,30.26,10.0,Calm,Calm,-,N/A,,Clear,0,2009-01-01 21:59:00
7:20 PM,37.4,8.6,30,30.26,10.0,Calm,Calm,-,N/A,,Clear,0,2009-01-02 00:20:00
7:40 PM,37.4,8.6,30,30.26,10.0,Calm,Calm,-,N/A,,Clear,0,2009-01-02 00:40:00
8:00 PM,35.6,8.6,33,30.25,10.0,Calm,Calm,-,N/A,,Clear,0,2009-01-02 01:00:00
8:20 PM,35.6,8.6,33,30.25,10.0,Calm,Calm,-,N/A,,Clear,0,2009-01-02 01:20:00
8:40 PM,35.6,8.6,33,30.25,10.0,Calm,Calm,-,N/A,,Clear,0,2009-01-02 01:40:00
9:00 PM,35.6,8.6,33,30.25,10.0,Calm,Calm,-,N/A,,Clear,0,2009-01-02 02:00:00
9:20 PM,35.6,8.6,33,30.24,10.0,Calm,Calm,-,N/A,,Clear,0,2009-01-02 02:20:00
9:40 PM,33.8,10.4,38,30.24,10.0,Calm,Calm,-,N/A,,Clear,0,2009-01-02 02:40:00
10:00 PM,33.8,10.4,38,30.24,10.0,Calm,Calm,-,N/A,,Clear,0,2009-01-02 03:00:00
10:20 PM,33.8,10.4,38,30.23,10.0,Calm,Calm,-,N/A,,Clear,0,2009-01-02 03:20:00
11:00 PM,33.8,10.4,38,30.22,10.0,South,6.9,-,N/A,,Clear,170,2009-01-02 04:00:00
11:20 PM,33.8,10.4,38,30.22,10.0,South,4.6,-,N/A,,Clear,170,2009-01-02 04:20:00
11:40 PM,33.8,10.4,38,30.21,10.0,South,4.6,-,N/A,,Clear,180,2009-01-02 04:40:00